{"data":{"norad_id":58286,"epoch":"2026-05-25T03:28:20.726976Z","epoch_age_seconds":59224,"freshness":"FRESH","line1":"1 58286U 23174AG  26145.14468434  .00036314  00000+0  52197-3 0  9991","line2":"2 58286  97.3930 236.7024 0005130 209.9650 150.1311 15.55991675142211","mean_motion":15.55991675,"eccentricity":0.000513,"inclination_deg":97.393,"raan_deg":236.7024,"arg_perigee_deg":209.965,"mean_anomaly_deg":150.1311,"bstar":0.00052197,"rev_number":14221,"period_min":92.54548228865,"perigee_km":395.79467309685,"apogee_km":402.74829420108,"semimajor_km":6777.408483649,"source":"CELESTRAK","updated_at":"2026-05-25T13:38:13.299424Z"}}